This demonstration page uses our WeatherBlox Daily Observations layout. Learn more.

Left ArrowRight Arrow

30.21309, -93.2044

Hourly Observations for August 5, 2022

Temp ( °F °C ) Dew Point ( °F °C ) Humidity (%) Winds ( mph kmh ) Pressure ( in mb ) Visibility ( mi km ) Precip ( " mm )
12:15 am 00:15 Clear 74 23.4 72 22.4 94 94 Calm 30.00 1016 10 16 0.00 0.00
12:35 am 00:35 Clear 74 23.5 73 22.5 94 94 NE 3 6 30.01 1016 10 16 0.00 0.00
12:55 am 00:55 Clear 75 23.7 73 22.5 93 93 NE 5 7 30.02 1017 10 16 0.00 0.00
1:15 am 01:15 Clear 75 23.8 73 22.6 93 93 E 3 6 30.02 1017 10 16 0.00 0.00
1:35 am 01:35 Clear 74 23.3 72 22.3 94 94 E 3 6 30.02 1017 10 16 0.00 0.00
1:55 am 01:55 Clear 74 23.4 72 22.4 94 94 ENE 3 6 30.01 1016 10 16 0.00 0.00
2:15 am 02:15 Clear 74 23.6 73 22.6 94 94 ENE 3 6 29.99 1016 10 16 0.00 0.00
2:35 am 02:35 Clear 75 23.7 73 22.7 94 94 E 5 7 29.99 1016 10 16 0.00 0.00
2:55 am 02:55 Clear 74 23.5 73 22.5 94 94 E 5 7 29.98 1015 10 16 0.00 0.00
3:15 am 03:15 Clear 74 23.5 73 22.5 94 94 E 3 6 29.98 1015 10 16 0.00 0.00
3:35 am 03:35 Clear 74 23.5 73 22.5 94 94 Calm 29.98 1015 10 16 0.00 0.00
3:55 am 03:55 Clear with Nearby Thunderstorms 74 23.6 73 22.6 94 94 E 3 6 29.99 1016 10 16 0.00 0.00
4:15 am 04:15 Clear 75 23.7 73 22.7 94 94 ENE 3 6 29.98 1015 10 16 0.00 0.00
4:35 am 04:35 Clear with Nearby Thunderstorms 75 23.9 73 22.7 93 93 ENE 3 6 29.99 1016 10 16 0.00 0.00
4:55 am 04:55 Partly Cloudy with Nearby Thunderstorms 75 24 73 22.8 93 93 NE 3 6 29.99 1016 10 16 0.00 0.00
5:15 am 05:15 Partly Cloudy 75 23.9 73 22.7 93 93 Calm 29.99 1016 10 16 0.00 0.00
5:35 am 05:35 Clear 74 23.5 72 22.4 94 94 SSE 3 6 30.00 1016 10 16 0.00 0.00
6:00 am 06:00 Partly Cloudy 73 23 72 22 94 94 E 6 9 30.00 1016 10 16 0.00 0.00
6:22 am 06:22 Cloudy with Mist and Fog 75 24 73 23 94 94 ESE 6 9 30.01 1016 3 5 0.00 0.00
6:51 am 06:51 Mostly Cloudy with Fog 75 24 73 23 94 94 ESE 6 9 30.01 1016 0 0 0.00 0.00
7:45 am 07:45 Mostly Cloudy with Mist and Fog 75 24 75 24 100 100 ESE 6 9 30.01 1016 5 8 0.00 0.00
8:35 am 08:35 Partly Cloudy 81 27 75 24 84 84 ENE 8 13 30.02 1017 10 16 0.00 0.00
8:50 am 08:50 Partly Cloudy 81 27 75 24 84 84 ENE 8 13 30.03 1017 10 16 0.00 0.00
10:55 am 10:55 Mostly Cloudy 86 30 75 24 70 70 SE 8 13 30.04 1017 10 16 0.00 0.00
11:51 am 11:51 Mostly Cloudy 88 31 75 24 66 66 ESE 12 19 30.04 1017 10 16 0.00 0.00
12:53 pm 12:53 Mostly Cloudy 88 31 73 23 62 62 E 9 15 30.03 1017 10 16 0.00 0.00
1:53 pm 13:53 Mostly Cloudy 90 32 75 24 63 63 E 12 19 30.02 1017 10 16 0.00 0.00
2:46 pm 14:46 Mostly Cloudy 90 32 73 23 59 59 SE 13 20 30.00 1016 10 16 0.00 0.00
3:45 pm 15:45 Partly Cloudy 82 28 73 23 74 74 SSW 8 13 30.01 1016 10 16 0.00 0.00
4:46 pm 16:46 Mostly Cloudy 88 31 73 23 62 62 SSE 15 24 30.00 1016 10 16 0.00 0.00
5:48 pm 17:48 Mostly Cloudy 82 28 75 24 79 79 WSW 15 24 30.01 1016 10 16 0.00 0.00
6:48 pm 18:48 Partly Cloudy 81 27 75 24 84 84 WSW 6 9 29.99 1016 10 16 0.00 0.00
7:55 pm 19:55 Mostly Cloudy 79 26 73 23 84 84 Calm 30.00 1016 10 16 0.00 0.00
8:47 pm 20:47 Mostly Clear 79 26 73 23 84 84 ESE 7 11 30.00 1016 10 16 0.00 0.00
9:45 pm 21:45 Mostly Clear 79 26 73 23 84 84 ESE 8 13 30.02 1017 10 16 0.00 0.00
10:15 pm 22:15 Partly Cloudy 77 24.8 74 23.1 90 90 ESE 7 11 30.02 1017 10 16 0.00 0.00
10:35 pm 22:35 Clear 77 25 74 23.2 90 90 ESE 7 11 30.02 1017 10 16 0.00 0.00
10:55 pm 22:55 Clear 77 25.1 74 23.3 90 90 ESE 9 15 30.02 1017 10 16 0.00 0.00
11:15 pm 23:15 Clear 77 25 74 23.2 90 90 ESE 9 15 30.02 1017 10 16 0.00 0.00
11:35 pm 23:35 Clear 77 24.9 74 23.2 90 90 E 7 11 30.02 1017 10 16 0.00 0.00
11:55 pm 23:55 Clear 77 24.8 74 23.1 90 90 ESE 7 11 30.02 1017 10 16 0.00 0.00

Powered by AerisWeather